Location: Marshall
(39.8477°N, 87.1868°W)
Time: 03:30:30
(UTC+00:00)

BlueWalker 3 - Pass Details

Date: 14 May 2026
Orbit: 447 x 456 km, 53.2° (Epoch: 9 June)

Event Time Altitude Azimuth Distance (km) Brightness Sun altitude
Exits shadow 08:06:06 - 313° (NW) 1,714 4.7 -22.9°
Reaches altitude 10° 08:06:52 10° 323° (NW) 1,573 4.6 -22.8°
Maximum altitude 08:08:14 12° 346° (NNW) 1,467 4.8 -22.6°
Drops below altitude 10° 08:09:36 10° 9° (N) 1,576 5.3 -22.5°
Sets 08:12:57 0° 43° (NE) 2,450 6.9 -22.1°
